Fort Simpson, Northwest Territories

10:19 AM MST on December 15, 2017 (GMT -0700)
Fort Simpson

Weather History for CZFS - December, 2011

Change the Weather History Date:

Friday, December 30, 2011

  Actual Average (CYFS) Record (CYFS)
Temperature  
Mean Temperature -17 °F -  
Max Temperature -13 °F -1 °F 39 °F (2006)
Min Temperature -21 °F -14 °F -46 °F (2013)
Degree Days  
Heating Degree Days 82    
Moisture  
Dew Point -23 °F    
Average Humidity 78    
Maximum Humidity 81    
Minimum Humidity 66    
Precipitation  
Precipitation 0.00 in - - ()
Sea Level Pressure  
Sea Level Pressure 29.62 in    
Wind  
Wind Speed 2 mph ()    
Max Wind Speed 4 mph    
Max Gust Speed -    
Averages and records for this station are not official NWS values.
T = Trace of Precipitation, MM = Missing Value Source: Averaged Metar Reports

Daily Weather History Graph

Daily Weather History Graph

Search for Another Location

Airport or City:

Trip Planner

Search our weather history database for the weather conditions in past years. The results will help you decide how hot, cold, wet, or windy it might be!

Date:

Astronomy

Dec. 30, 2011 Rise Set
Actual Time 10:26 AM MST 3:48 PM MST
Civil Twilight 9:22 AM MST 4:52 PM MST
Nautical Twilight 8:21 AM MST 5:53 PM MST
Astronomical Twilight 7:27 AM MST 6:47 PM MST
Moon 11:41 AM MST (12/30) No Moon Set
Length of Visible Light 7h 29m
Length of Day
5h 22m
Waxing Crescent, 36% of the Moon is Illuminated
Dec 30
Waxing Crescent
Dec 31
First Quarter
Jan 9
Full
Jan 16
Last Quarter
Jan 23
New

Hourly Weather History & Observations

Time (MST) Temp. Windchill Dew Point Humidity Pressure Visibility Wind Dir Wind Speed Gust Speed Precip Events Conditions
12:00 AM -19.8 °F - -24.9 °F 78% 29.53 in - NNW 2.3 mph - N/A   Unknown
2:00 AM -21.3 °F -32.2 °F -26.1 °F 78% 29.52 in - North 3.5 mph - N/A   Unknown
3:00 AM -21.8 °F -32.8 °F -26.7 °F 78% 29.53 in - North 3.5 mph - N/A   Unknown
4:00 AM -19.7 °F - -24.3 °F 79% 29.54 in - North 1.2 mph - N/A   Unknown
5:00 AM -18 °F - -22 °F 71% 29.55 in - North 3.5 mph - -  
6:00 AM -18.9 °F - -24.2 °F 77% 29.56 in - North 1.2 mph - N/A   Unknown
7:00 AM -17.9 °F - -22.4 °F 80% 29.56 in - NW 1.2 mph - N/A   Unknown
8:00 AM -15.7 °F - -20.2 °F 80% 29.56 in - NNW 1.2 mph - N/A   Unknown
9:00 AM -18.2 °F - -22.9 °F 79% 29.57 in - SSW 1.2 mph - N/A   Unknown
10:00 AM -17.5 °F - -22.2 °F 79% 29.59 in - South 2.3 mph - N/A   Unknown
11:00 AM -17.3 °F - -21.8 °F 80% 29.60 in - South 2.3 mph - N/A   Unknown
12:00 PM -16.6 °F - -21.1 °F 80% 29.59 in - Calm Calm - N/A   Unknown
1:00 PM -17.5 °F - -22.0 °F 80% 29.60 in - Calm Calm - N/A   Unknown
2:00 PM -17.3 °F - -21.8 °F 80% 29.61 in - South 2.3 mph - N/A   Unknown
3:00 PM -18.2 °F - -22.9 °F 79% 29.63 in - Calm Calm - N/A   Unknown
4:00 PM -18.6 °F - -23.4 °F 78% 29.64 in - Calm Calm - N/A   Unknown
5:00 PM -18 °F - -23 °F 66% 29.66 in - SSE 1.2 mph - -  
5:00 PM -18.4 °F - -22.9 °F 80% 29.66 in - SSE 1.2 mph - N/A   Unknown
6:00 PM -17.7 °F - -22.4 °F 79% 29.68 in - Calm Calm - N/A   Unknown
7:00 PM -16.1 °F - -20.6 °F 80% 29.68 in - North 2.3 mph - N/A   Unknown
8:00 PM -16.2 °F - -20.7 °F 80% 29.70 in - Calm Calm - N/A   Unknown
9:00 PM -13.5 °F -23.3 °F -17.9 °F 81% 29.73 in - NW 3.5 mph - N/A   Unknown
11:00 PM -17 °F - -22 °F 67% 29.78 in - NW 1.2 mph - -  
11:00 PM -17.1 °F - -21.8 °F 79% 29.78 in - NW 1.2 mph - N/A   Unknown